OpenBCM V1.13 (Linux)

Packet Radio Mailbox

DB0FHN

[JN59NK Nuernberg]

 Login: GUEST





  
UA9FBV > KEPS     08.10.04 06:17l 207 Lines 5447 Bytes #999 (0) @ AMSAT
BID : ORB04281.W
Read: GUEST
Subj: Orbital Elements  04281.WEATHER
Path: DB0FHN<DB0RGB<OK0PPL<DB0RES<ER3KAZ<UA9FBV
Sent: 041008/0406Z @:UA9FBV.PRM.RUS.AS #:5019 [Perm] GATEWAY $:ORB04281.W
From: UA9FBV@UA9FBV.PRM.RUS.AS
To  : KEPS@AMSAT


HR AMSAT ORBITAL ELEMENTS FOR WEATHER SATELLITES
FROM WA5QGD FORT WORTH,TX October 7, 2004
SEND SUBSCRIBE/UNSUBSCRIBE TO majordomo@amsat.org ONLY
BID: ORB04281.W
TO ALL RADIO AMATEURS BT

Satellite: NOAA-10
Catalog number: 16969
Epoch time:      04281.45901179
Element set:     421
Inclination:       98.7614 deg
RA of node:       280.6840 deg
Eccentricity:    0.0012923
Arg of perigee:   145.4246 deg
Mean anomaly:     214.7780 deg
Mean motion:   14.27215352 rev/day
Decay rate:        8.2e-07 rev/day^2
Epoch rev:           93904
Checksum:              303

Satellite: NOAA-11
Catalog number: 19531
Epoch time:      04281.45798997
Element set:     278
Inclination:       98.8606 deg
RA of node:         4.5905 deg
Eccentricity:    0.0010883
Arg of perigee:   309.2409 deg
Mean anomaly:      50.7793 deg
Mean motion:   14.14729395 rev/day
Decay rate:      -2.50e-06 rev/day^2
Epoch rev:           82719
Checksum:              339

Satellite: NOAA-12
Catalog number: 21263
Epoch time:      04281.48319399
Element set:     765
Inclination:       98.6808 deg
RA of node:       268.1097 deg
Eccentricity:    0.0013789
Arg of perigee:    84.8229 deg
Mean anomaly:     275.4524 deg
Mean motion:   14.25416084 rev/day
Decay rate:       1.54e-06 rev/day^2
Epoch rev:           69624
Checksum:              340

Satellite: MET-3/5
Catalog number: 21655
Epoch time:      04279.90561309
Element set:     654
Inclination:       82.5586 deg
RA of node:       338.3057 deg
Eccentricity:    0.0013488
Arg of perigee:   144.6289 deg
Mean anomaly:     215.5730 deg
Mean motion:   13.16996166 rev/day
Decay rate:        5.1e-07 rev/day^2
Epoch rev:           63184
Checksum:              328

Satellite: MET-2/21
Catalog number: 22782
Epoch time:      04281.08882649
Element set:      23
Inclination:       82.5442 deg
RA of node:       101.7622 deg
Eccentricity:    0.0023557
Arg of perigee:   111.9285 deg
Mean anomaly:     248.4382 deg
Mean motion:   13.83570381 rev/day
Decay rate:        4.0e-08 rev/day^2
Epoch rev:           56057
Checksum:              293

Satellite: OKEAN-4
Catalog number: 23317
Epoch time:      04281.57222904
Element set:     450
Inclination:       82.5397 deg
RA of node:       132.8963 deg
Eccentricity:    0.0020962
Arg of perigee:   248.3453 deg
Mean anomaly:     111.5533 deg
Mean motion:   14.81897711 rev/day
Decay rate:       4.22e-06 rev/day^2
Epoch rev:           53849
Checksum:              302

Satellite: NOAA-14
Catalog number: 23455
Epoch time:      04281.52006802
Element set:     304
Inclination:       99.1280 deg
RA of node:       319.2620 deg
Eccentricity:    0.0009250
Arg of perigee:   357.3409 deg
Mean anomaly:       2.7713 deg
Mean motion:   14.13495133 rev/day
Decay rate:       3.90e-06 rev/day^2
Epoch rev:           50380
Checksum:              260

Satellite: SICH-1
Catalog number: 23657
Epoch time:      04281.22176549
Element set:     254
Inclination:       82.5257 deg
RA of node:       274.0173 deg
Eccentricity:    0.0022620
Arg of perigee:   232.2061 deg
Mean anomaly:     127.7104 deg
Mean motion:   14.80930502 rev/day
Decay rate:       3.99e-06 rev/day^2
Epoch rev:           49051
Checksum:              271

Satellite: NOAA-15
Catalog number: 25338
Epoch time:      04281.48461747
Element set:     755
Inclination:       98.5200 deg
RA of node:       291.4774 deg
Eccentricity:    0.0010999
Arg of perigee:    21.8563 deg
Mean anomaly:     338.3084 deg
Mean motion:   14.24455237 rev/day
Decay rate:        4.8e-07 rev/day^2
Epoch rev:           33277
Checksum:              322

Satellite: RESURS
Catalog number: 25394
Epoch time:      04281.90016785
Element set:     918
Inclination:       98.5714 deg
RA of node:       351.8896 deg
Eccentricity:    0.0002090
Arg of perigee:   141.8518 deg
Mean anomaly:     218.2809 deg
Mean motion:   14.24025725 rev/day
Decay rate:        2.1e-07 rev/day^2
Epoch rev:           32454
Checksum:              298

Satellite: FENGYUN1
Catalog number: 25730
Epoch time:      04281.47738427
Element set:     250
Inclination:       98.6065 deg
RA of node:       287.4260 deg
Eccentricity:    0.0015546
Arg of perigee:   100.9050 deg
Mean anomaly:     259.3873 deg
Mean motion:   14.11778967 rev/day
Decay rate:      -2.58e-06 rev/day^2
Epoch rev:           27885
Checksum:              324

Satellite: OKEAN-0
Catalog number: 25860
Epoch time:      04281.56900273
Element set:     258
Inclination:       97.7879 deg
RA of node:       312.2129 deg
Eccentricity:    0.0001011
Arg of perigee:    40.5827 deg
Mean anomaly:     319.5456 deg
Mean motion:   14.73122451 rev/day
Decay rate:       1.41e-06 rev/day^2
Epoch rev:           28081
Checksum:              277

Satellite: NOAA-16
Catalog number: 26536
Epoch time:      04281.49510619
Element set:      51
Inclination:       98.9754 deg
RA of node:       232.9922 deg
Eccentricity:    0.0011271
Arg of perigee:    63.3013 deg
Mean anomaly:     296.9305 deg
Mean motion:   14.12160206 rev/day
Decay rate:       4.20e-06 rev/day^2
Epoch rev:           20839
Checksum:              279

Satellite: NOAA-17
Catalog number: 27453
Epoch time:      04281.48160932
Element set:      76
Inclination:       98.6897 deg
RA of node:       352.4747 deg
Eccentricity:    0.0012636
Arg of perigee:    70.9396 deg
Mean anomaly:     289.3150 deg
Mean motion:   14.23576187 rev/day
Decay rate:        1.4e-07 rev/day^2
Epoch rev:           11888
Checksum:              335



Read previous mail | Read next mail


 18.06.2026 08:48:39lGo back Go up